| time (UTC) | temp F | wind direction | speed knots | gust knots | rain 1hr in | rain 24hr in | rain mn in | humidity % | barometer mb |
| 20260502170122 | 66 | 358 | 6.1 | 7.8 | 0.00 | 0.00 | 0.00 | 28 | 988.8 |
| 20260502164125 | 62 | 305 | 7.8 | 10.4 | 0.00 | 0.00 | 0.00 | 31 | 988.9 |
| 20260502163122 | 63 | 10 | 6.1 | 11.3 | 0.00 | 0.00 | 0.00 | 29 | 989.0 |
| 20260502162122 | 63 | 17 | 8.7 | 13.9 | 0.00 | 0.00 | 0.00 | 29 | 988.9 |
| 20260502161122 | 61 | 332 | 7.8 | 11.3 | 0.00 | 0.00 | 0.00 | 34 | 988.9 |
| 20260501223123 | 70 | 324 | 8.7 | 10.4 | 0.00 | 0.00 | 0.00 | 28 | 983.1 |
| 20260501222123 | 73 | 312 | 7.0 | 10.4 | 0.00 | 0.00 | 0.00 | 25 | 983.0 |
| 20260501221126 | 73 | 34 | 4.3 | 7.0 | 0.00 | 0.00 | 0.00 | 25 | 983.0 |
| 20260501220144 | 72 | 35 | 5.2 | 7.0 | 0.00 | 0.00 | 0.00 | 25 | 983.2 |
| 20260501215144 | 70 | 317 | 7.0 | 10.4 | 0.00 | 0.00 | 0.00 | 27 | 983.2 |
| 20260501214125 | 73 | 291 | 7.0 | 11.3 | 0.00 | 0.00 | 0.00 | 27 | 983.5 |
| 20260501213124 | 72 | 288 | 6.1 | 8.7 | 0.00 | 0.00 | 0.00 | 26 | 983.7 |
| 20260501212123 | 70 | 297 | 7.0 | 11.3 | 0.00 | 0.00 | 0.00 | 29 | 983.9 |
| 20260501211126 | 72 | 344 | 7.0 | 13.0 | 0.00 | 0.00 | 0.00 | 25 | 983.9 |
| 20260501210123 | 70 | 308 | 11.3 | 15.6 | 0.00 | 0.00 | 0.00 | 27 | 984.2 |
| 20260501205123 | 72 | 299 | 7.0 | 11.3 | 0.00 | 0.00 | 0.00 | 28 | 984.5 |
| 20260501204126 | 68 | 306 | 7.8 | 13.0 | 0.00 | 0.00 | 0.00 | 29 | 984.7 |
| 20260501203124 | 71 | 311 | 6.1 | 9.6 | 0.00 | 0.00 | 0.00 | 26 | 985.0 |
| 20260501202123 | 69 | 306 | 2.6 | 5.2 | 0.00 | 0.00 | 0.00 | 28 | 985.1 |
| 20260501201147 | 68 | 308 | 7.8 | 13.0 | 0.00 | 0.00 | 0.00 | 28 | 985.1 |
| 20260501200123 | 67 | 325 | 9.6 | 13.9 | 0.00 | 0.00 | 0.00 | 29 | 985.2 |
| 20260501195123 | 69 | 295 | 4.3 | 9.6 | 0.00 | 0.00 | 0.00 | 27 | 985.5 |
| 20260501194126 | 68 | 289 | 8.7 | 10.4 | 0.00 | 0.00 | 0.00 | 28 | 985.5 |
| 20260501193123 | 73 | 293 | 6.1 | 9.6 | 0.00 | 0.00 | 0.00 | 28 | 985.6 |
| 20260501192144 | 71 | 293 | 7.0 | 11.3 | 0.00 | 0.00 | 0.00 | 25 | 985.6 |
| 20260501191123 | 72 | 299 | 6.1 | 13.9 | 0.00 | 0.00 | 0.00 | 25 | 985.6 |
| 20260501190126 | 71 | 308 | 7.0 | 10.4 | 0.00 | 0.00 | 0.00 | 25 | 985.7 |
| 20260501185144 | 70 | 28 | 7.0 | 10.4 | 0.00 | 0.00 | 0.00 | 25 | 985.7 |
| 20260501184123 | 71 | 346 | 7.0 | 12.2 | 0.00 | 0.00 | 0.00 | 25 | 985.7 |
| 20260501183125 | 69 | 293 | 6.1 | 10.4 | 0.00 | 0.00 | 0.00 | 25 | 985.8 |
| 20260501182123 | 69 | 311 | 8.7 | 14.8 | 0.00 | 0.00 | 0.00 | 25 | 985.8 |
| 20260501181123 | 70 | 290 | 6.1 | 11.3 | 0.00 | 0.00 | 0.00 | 25 | 985.8 |
| 20260501180126 | 70 | 268 | 4.3 | 9.6 | 0.00 | 0.00 | 0.00 | 28 | 985.8 |
| 20260501175144 | 71 | 28 | 2.6 | 4.3 | 0.00 | 0.00 | 0.00 | 24 | 985.9 |
| 20260501174123 | 69 | 94 | 5.2 | 7.0 | 0.00 | 0.00 | 0.00 | 26 | 986.0 |
| 20260501173126 | 70 | 267 | 1.7 | 4.3 | 0.00 | 0.00 | 0.00 | 25 | 986.1 |
| 20260501172123 | 69 | 299 | 4.3 | 7.8 | 0.00 | 0.00 | 0.00 | 25 | 986.2 |